Weather History for Fayetteville, AR

Change the Weather History Date:

Friday, April 12, 2013

  Actual Average Record
Temperature  
Mean Temperature 45 °F 56 °F  
Max Temperature 58 °F 68 °F 90 °F (1972)
Min Temperature 32 °F 44 °F 24 °F (1957)
Degree Days  
Heating Degree Days 20 10  
Month to date heating degree days 154 135  
Since 1 July heating degree days 3870 3964  
Cooling Degree Days 0 1  
Month to date cooling degree days 7 9  
Year to date cooling degree days 8 13  
Moisture  
Dew Point 33 °F    
Average Humidity 68    
Maximum Humidity 96    
Minimum Humidity 40    
Precipitation  
Precipitation 0.00 in 0.14 in 1.62 in (1952)
Month to date precipitation 2.15 1.70  
Year to date precipitation 12.48 11.30  
Sea Level Pressure  
Sea Level Pressure 29.95 in    
Wind  
Wind Speed 6 mph (WNW)    
Max Wind Speed 17 mph    
Max Gust Speed 21 mph    
Visibility 10 miles    
Events      
T = Trace of Precipitation, MM = Missing Value Source: NWS Daily Summary

Daily Weather History Graph

Daily Weather History Graph

Search for Another Location

Airport:

Trip Planner

Search our weather history database for the weather conditions in past years. The results will help you decide how hot, cold, wet, or windy it might be!

Date:

Astronomy

Apr. 12, 2013 Rise Set
Actual Time 6:47 AM CDT 7:48 PM CDT
Civil Twilight 6:20 AM CDT 8:14 PM CDT
Nautical Twilight 5:49 AM CDT 8:45 PM CDT
Astronomical Twilight 5:17 AM CDT 9:17 PM CDT
Moon 8:01 AM CDT (4/12) 10:14 PM CDT (4/12)
Length of Visible Light 13h 53m
Length of Day
13h 00m
Waxing Crescent, 5% of the Moon is Illuminated
Apr 12
Waxing Crescent
Apr 18
First Quarter
Apr 25
Full
May 2
Last Quarter
May 9
New

Hourly Weather History & Observations

Time (CDT) Temp. Windchill Dew Point Humidity Pressure Visibility Wind Dir Wind Speed Gust Speed Precip Events Conditions
12:53 AM 34.0 °F 29.8 °F 32.0 °F 92% 29.85 in 10.0 mi South 4.6 mph - N/A   Clear
1:53 AM 33.1 °F 28.7 °F 32.0 °F 96% 29.84 in 10.0 mi SSW 4.6 mph - N/A   Clear
2:53 AM 33.1 °F - 32.0 °F 96% 29.84 in 10.0 mi Calm Calm - N/A   Clear
3:53 AM 32.0 °F 24.8 °F 30.9 °F 96% 29.84 in 10.0 mi South 8.1 mph - N/A   Clear
4:53 AM 32.0 °F - 30.9 °F 96% 29.86 in 10.0 mi Calm Calm - N/A   Clear
5:53 AM 34.0 °F 26.6 °F 30.9 °F 89% 29.88 in 10.0 mi NW 9.2 mph - N/A   Clear
6:53 AM 34.0 °F - 30.9 °F 89% 29.92 in 10.0 mi Calm Calm - N/A   Clear
7:53 AM 37.9 °F - 32.0 °F 79% 29.94 in 10.0 mi Calm Calm - N/A   Clear
8:53 AM 42.1 °F 37.1 °F 30.9 °F 65% 29.96 in 10.0 mi NNW 8.1 mph - N/A   Clear
9:53 AM 45.0 °F 38.9 °F 28.9 °F 53% 29.98 in 10.0 mi NW 12.7 mph 18.4 mph N/A   Clear
10:53 AM 46.9 °F - 30.0 °F 52% 30.00 in 10.0 mi WNW 13.8 mph 20.7 mph N/A   Clear
11:53 AM 51.1 °F - 32.0 °F 48% 30.01 in 10.0 mi NW 10.4 mph 17.3 mph N/A   Clear
12:53 PM 52.0 °F - 32.0 °F 47% 30.01 in 10.0 mi NNW 11.5 mph - N/A   Clear
1:53 PM 53.1 °F - 32.0 °F 45% 30.00 in 10.0 mi NW 9.2 mph 19.6 mph N/A   Clear
2:53 PM 55.0 °F - 33.1 °F 43% 30.00 in 10.0 mi West 10.4 mph 18.4 mph N/A   Clear
3:53 PM 57.0 °F - 34.0 °F 42% 29.97 in 10.0 mi West 12.7 mph 16.1 mph N/A   Clear
4:53 PM 57.0 °F - 33.1 °F 40% 29.97 in 10.0 mi NW 5.8 mph - N/A   Clear
5:53 PM 57.0 °F - 33.1 °F 40% 29.97 in 10.0 mi WNW 4.6 mph - N/A   Clear
6:53 PM 55.0 °F - 34.0 °F 45% 29.97 in 10.0 mi NW 8.1 mph - N/A   Clear
7:53 PM 48.0 °F - 36.0 °F 63% 29.98 in 10.0 mi NNW 4.6 mph - N/A   Clear
8:53 PM 48.0 °F - 35.1 °F 61% 29.99 in 10.0 mi Calm Calm - N/A   Partly Cloudy
9:53 PM 46.9 °F - 39.0 °F 74% 30.01 in 10.0 mi Calm Calm - N/A   Clear
10:53 PM 46.9 °F - 39.0 °F 74% 30.03 in 10.0 mi Calm Calm - N/A   Clear
11:53 PM 46.0 °F - 39.0 °F 76% 30.04 in 10.0 mi Calm Calm - N/A   Clear